Regional Weather Roundup
Issued by NWS

Home | Current Version | Previous Version | Text Only | Print | Product List | Glossary Off
Versions: 1 2 3 4 5 6 7 8 9 10 11 12 13 14 15 16 17 18 19 20 21 22 23 24 25 26 27 28 29 30 31 32 33 34 35 36 37 38 39 40 41 42 43 44 45 46 47 48 49 50

000
ASUS43 KDTX 242110
RWRMI
MICHIGAN HOURLY REGIONAL WEATHER ROUNDUP
NATIONAL WEATHER SERVICE DETROIT/PONTIAC MI
500 PM EDT FRI APR 24 2015

NOTE: "FAIR" INDICATES FEW OR NO CLOUDS BELOW 12,000 FEET WITH NO
SIGNIFICANT WEATHER AND/OR OBSTRUCTION TO VISIBILITY.

MIZ047>049-052>055-059>063-066>070-074>076-081>083-242200-
SOUTHEAST LOWER MICHIGAN

CITY           SKY/WX    TMP DP  RH WIND       PRES   REMARKS
ADRIAN         SUNNY     58  21  24 NE3       29.99F
ALMA           SUNNY     55  19  24 W6        29.99F
ANN ARBOR      SUNNY     58  17  20 NW9       29.99F
BAD AXE        SUNNY     48  18  30 SW8       30.02F
DETROIT CITY   SUNNY     55  15  20 VRB3      30.00F
DETROIT        MOSUNNY   59  18  20 W8        30.00F
FLINT          SUNNY     56  19  23 NW14G20   30.00F
GROSSE ILE     SUNNY     50  36  57 SE7       30.00F
HILLSDALE      SUNNY     57  17  20 NW3       29.98F
HOWELL         SUNNY     55  17  22 NW6       29.99F

CITY           SKY/WX    TMP DP  RH WIND       PRES   REMARKS
JACKSON        SUNNY     58  18  21 NW6       29.98F
LAMBERTVILLE   SUNNY     59  21  23 SW5       29.99F
LANSING        SUNNY     55  19  24 NW9       30.00F
LAPEER         NOT AVBL
MASON          SUNNY     55  18  23 CALM      29.99F
MONROE         SUNNY     57  23  26 NW10      29.98F
MT. CLEMENS    MOSUNNY   49  24  37 SE8       29.99F
PONTIAC        MOSUNNY   54  17  23 NW13      29.99F
PORT HOPE        N/A     37  27  67 NE10      30.03S
PORT HURON     SUNNY     46  27  46 NE9       30.03F
TRI CITIES     SUNNY     55  16  21 NW9       30.00F
YPSILANTI      SUNNY     61  16  17 W12       29.99F
$$
MIZ043>046-050>051-056>058-064>065-071>073-077>080-242200-
SOUTHWEST LOWER MICHIGAN

CITY           SKY/WX    TMP DP  RH WIND       PRES   REMARKS
BATTLE CREEK   SUNNY     58  21  24 NE5       29.98F
BENTON HARBOR  PTSUNNY   52  17  25 VRB5      29.98F
BIG RAPIDS     SUNNY     56  17  22 W7        29.97F
COLDWATER      SUNNY     56  19  23 CALM      29.98F
HOLLAND        SUNNY     56  18  22 NW10      30.01F
GRAND RAPIDS   MOSUNNY   58  20  22 VRB3      29.99F
KALAMAZOO      SUNNY     59  21  23 VRB5      29.98F
MARSHALL       SUNNY     58  21  24 NW5       29.97F
MUSKEGON       MOSUNNY   54  16  22 W10       30.01F
$$
MIZ016>042-242200-
NORTHERN LOWER MICHIGAN

CITY           SKY/WX    TMP DP  RH WIND       PRES   REMARKS
ALPENA         SUNNY     49  18  29 N16       30.01F
BEAVER ISLAND  SUNNY     43  15  32 W8        30.05S
BELLAIRE       SUNNY     45  16  31 W7        30.05S
CADILLAC       SUNNY     52  16  24 NW9       29.98F
CHARLEVOIX     SUNNY     40  14  34 NW3       30.09S
FRANKFORT      CLEAR     47  13  26 N9        30.05S
GAYLORD        SUNNY     43  10  26 VRB6      30.01F
GRAYLING       SUNNY     48  15  26 NW8       30.01S
HARBOR SPRINGS SUNNY     38  21  51 S6        30.04F
HOUGHTON LAKE  SUNNY     49  14  24 W8G17     30.00F
MANISTEE       SUNNY     45  21  39 NW12      30.04S
OSCODA         SUNNY     40  24  53 E13       30.03S
PELLSTON       SUNNY     44  14  29 VRB5      30.04F
TRAVERSE CITY  MOSUNNY   43  20  39 NE10      30.04F
$$
MIZ007>008-015-242200-
EASTERN UPPER MICHIGAN

CITY           SKY/WX    TMP DP  RH WIND       PRES   REMARKS
KINROSS        SUNNY     37  16  41 NW12G22   30.05R
MACKINAC ISLAN SUNNY     41  22  46 W6        30.04S
NEWBERRY       SUNNY     39  20  45 N9G18     30.04F
S. S. MARIE    SUNNY     36  14  40 NW16G25   30.05S
$$
MIZ004>006-011>014-085-242200-
CENTRAL UPPER MICHIGAN

CITY           SKY/WX    TMP DP  RH WIND       PRES   REMARKS
MANISTIQUE     SUNNY     40  23  50 S12       30.04S
ESCANABA       MOSUNNY   39  28  65 S12       30.04S
MENOMINEE      CLOUDY    43  27  52 SE12      30.03F
SAWYER-GWINN   SUNNY     41  18  38 NE16      30.00S
$$
MIZ001>003-009>011-084-242200-
WESTERN UPPER MICHIGAN

CITY           SKY/WX    TMP DP  RH WIND       PRES   REMARKS
IRON MOUNTAIN  CLOUDY    51  16  24 CALM      29.96F
HOUGHTON       MOSUNNY   40  22  48 E10       30.01F
COPPER HARBOR    N/A     37  26  64 E13       30.05F
IRONWOOD       CLOUDY    43  30  61 S10       29.94S
$$

ABBREVIATIONS USED IN REMARKS
   TC - TEMPERATURE IN CELSIUS
  WCI - WIND CHILL INDEX
   HX - HEAT INDEX
  VSB - VISIBILITY



USA.gov is the U.S. government's official web portal to all federal, state and local government web resources and services.